SCP
-0 -0 0 0 -0 0 0 -0 -0 -0 -0 -0 -0 -0 -0 -0 0 0 0 -0 -0 -0 -0 -0 -0 -0 -0 -0 -0 -0 -0 -0 0 0 0 0 0 0 0 0 0 0 -0 -0 -0 -0 -0 -0 -0
0 -0 -0 -0 0 0 0 -0 -0 -0 -0 -0 -0 -0 -0 -0 -0 -0 0 -0 -0 -0 -0 -0 -0 -0 -0 -0 -0 -0 -0 0 0 0 0 0 0 0 0 -0 -0 -0 -0 -0 -0 -0 -0 -0 -0
-0 0 -0 0 0 0 -0 -0 -0 -0 0 0 -0 -0 -0 0 0 0 -0 -0 -0 -0 -0 -0 -0 -0 -0 -0 -0 -0 0 0 0 0 0 0 0 -0 -0 -0 -0 -0 -0 -0 -0 -0 -0 -0 -0
0 0 0 0 0 -0 0 -0 0 -0 -0 -0 0 -0 -0 0 0 -0 -0 -0 -0 -0 -0 -0 -0 -0 -0 -0 -0 -0 0 0 0 0 -0 -0 -0 -0 -0 -0 -0 -0 -0 -0 -0 -0 -0 -0 -0
0 0 0 0 -0 0 -0 -0 -0 -0 -0 -0 -0 -0 -0 -0 -0 -0 -0 -0 -0 -0 -0 -0 -0 -0 -0 -0 -0 0 -0 -0 -0 -0 -0 -0 -0 -0 -0 -0 -0 -0 -0 -0 -0 -0 -0 0 -0
0 0 -0 0 -0 -0 -0 -0 0 -0 -0 -0 -0 -0 -0 -0 -0 -0 -0 0 -0 -0 0 0 0 0 0 0 -0 -0 -0 -0 -0 -0 -0 -0 -0 -0 -0 -0 -0 -0 -0 -0 -0 0 0 0 0
-0 0 -0 -0 0 -0 -0 -0 -0 -0 -0 -0 -0 -0 -0 -0 -0 -0 -0 -0 -0 -0 0 0 0 0 0 0 -0 -0 -0 -0 -0 -0 -0 -0 -0 -0 -0 -0 -0 -0 0 0 0 0 0 0 -0
-0 0 -0 -0 0 -0 0 -0 0 -0 -0 -0 -0 0 -0 -0 -0 -0 0 0 0 -0 -0 0 0 0 -0 -0 0 -0 -0 -0 -0 -0 -0 -0 -0 0 0 0 0 0 0 0 0 -0 0 -0 -0
-0 0 0 -0 -0 -0 0 -0 -0 -0 -0 -0 -0 -0 -0 -0 -0 -0 0 -0 0 0 -0 0 0 0 -0 -0 -0 -0 0 -0 -0 -0 -0 0 0 -0 -0 -0 -0 -0 0 0 0 0 0 -0 -0
0 -0 -0 -0 -0 -0 -0 -0 0 0 0 -0 0 -0 -0 -0 -0 -0 -0 -0 -0 0 -0 0 0 -0 -0 -0 -0 -0 -0 -0 -0 -0 0 0 0 -0 -0 -0 -0 -0 -0 0 0 -0 -0 -0 -0
0 -0 -0 -0 0 0 0 0 0 0 -0 -0 -0 -0 -0 -0 -0 -0 -0 -0 -0 0 0 0 0 -0 -0 0 -0 -0 -0 -0 -0 0 0 0 0 0 0 0 0 0 0 -0 -0 -0 -0 0 0
0 -0 -0 0 0 -0 -0 0 0 0 -0 0 -0 -0 -0 -0 -0 -0 -0 -0 -0 -0 0 0 -0 -0 0 0 -0 -0 -0 -0 0 0 -0 0 0 0 0 0 0 0 -0 0 0 0 0 -0 0
-0 0 -0 0 0 -0 0 -0 0 0 0 -0 -0 -0 -0 -0 -0 -0 -0 -0 -0 -0 -0 -0 -0 -0 0 -0 -0 -0 -0 -0 0 0 -0 -0 -0 0 0 -0 0 -0 0 0 0 0 0 0 0
0 -0 -0 0 0 -0 0 -0 -0 -0 0 0 -0 -0 -0 -0 -0 -0 -0 -0 -0 -0 -0 -0 -0 -0 -0 0 0 -0 -0 0 -0 0 0 -0 -0 -0 -0 0 -0 0 0 0 0 0 0 0 -0
0 0 0 -0 -0 -0 0 -0 0 -0 0 0 0 -0 -0 -0 -0 -0 -0 -0 -0 -0 -0 -0 -0 -0 -0 -0 -0 -0 -0 0 0 0 0 0 -0 -0 -0 1 -0 0 0 0 0 0 0 0 -0
0 -0 -0 -0 -0 -0 0 0 -0 0 0 0 0 0 0 -0 -0 -0 -0 0 -0 -0 -0 -0 -0 -0 -0 0 0 -0 0 -0 0 -0 0 0 0 -0 -0 0 0 0 0 0 0 0 0 0 -0
-0 0 -0 -0 -0 0 0 -0 -0 0 0 0 0 0 0 0 0 0 -0 -0 -0 -0 -0 0 -0 -0 -0 0 0 0 -0 0 0 0 0 0 0 0 0 0 1 0 0 0 0 0 0 0 0
0 -0 -0 0 -0 0 0 0 -0 0 -0 0 0 0 0 0 0 0 -0 -0 -0 -0 0 0 0 0 -0 0 0 0 -0 -0 -0 0 0 0 0 0 0 0 1 0 0 0 0 0 0 0 0
-0 0 0 -0 0 0 0 0 0 0 0 0 0 0 0 0 0 0 0 -0 -0 0 0 0 0 0 0 0 0 0 -0 0 0 -0 0 0 0 0 -0 0 1 1 1 0 0 0 0 0 0
0 0 0 0 0 0 0 0 0 0 0 0 0 0 0 0 0 0 0 0 0 -0 0 0 0 1 1 1 0 0 0 0 0 0 0 0 0 0 0 1 1 1 1 2 1 0 0 0 1
0 0 0 0 0 0 0 -0 0 -0 0 0 0 0 0 0 0 0 1 1 1 1 0 0 0 1 1 1 1 1 0 0 0 0 0 1 1 1 0 2 2 2 1 1 1 0 0 0 1
-0 0 0 0 0 0 -0 0 -0 -0 0 0 -0 0 -0 0 0 0 1 1 0 1 1 0 1 1 1 1 1 1 1 1 1 1 1 1 2 3 3 3 4 3 1 1 2 0 0 0 0
-0 0 0 0 0 0 0 0 0 0 -0 -0 0 0 0 0 0 0 0 1 1 1 1 1 1 1 1 1 1 1 1 1 1 1 2 2 4 3 5 5 5 2 2 1 0 1 0 0 0
0 0 0 0 -0 -0 -0 0 -0 0 0 0 0 0 0 0 0 0 1 1 1 1 2 3 3 1 1 2 3 1 1 1 2 1 2 5 7 6 7 8 6 3 2 1 1 1 1 0 0
0 -0 0 -0 -0 -0 0 -0 0 0 0 0 0 0 0 0 0 0 0 0 1 1 2 3 7 4 4 3 3 3 1 2 2 3 2 3 7 10 7 8 7 4 2 1 1 1 0 0 0
-0 -0 -0 -0 -0 0 -0 -0 -0 0 0 0 0 1 1 1 1 0 0 0 0 0 0 2 4 7 9 4 4 5 4 3 2 3 2 3 4 10 9 9 7 6 4 2 1 1 0 0 0
0 0 -0 0 0 0 0 0 0 0 0 0 0 0 0 0 0 0 0 0 0 0 0 1 2 4 6 9 8 3 4 5 4 2 5 1 2 6 12 13 8 7 6 3 1 1 0 0 0
0 0 0 0 0 -0 0 0 0 0 0 0 0 0 0 0 0 0 0 0 0 0 0 0 0 0 1 1 1 3 5 4 7 8 6 4 5 2 3 11 13 10 8 4 1 0 0 0 0
0 0 0 0 0 0 0 0 0 0 1 1 0 0 0 0 0 0 0 0 0 0 0 0 0 0 0 0 0 0 2 5 4 5 6 6 5 5 6 5 8 12 8 5 2 1 0 0 0
0 0 0 0 0 0 0 0 0 0 0 0 0 0 0 0 0 0 0 0 0 0 0 0 0 0 0 0 0 0 0 1 2 2 3 4 4 5 5 8 9 12 10 5 2 1 1 1 0
Wind_Speed_500mb
11 2 18 10 14 3 15 15 31 21 31 22 25 24 36 48 26 18 39 33 41 32 42 41 32 27 24 22 22 21 21 22 21 22 24 27 27 25 24 22 20 19 18 17 15 13 12 13 15
6 6 2 8 6 17 12 29 29 28 26 23 22 12 34 34 34 39 33 36 40 22 38 38 34 28 24 23 24 24 23 24 24 25 27 30 27 22 18 16 16 15 14 13 12 11 10 11 12
21 16 18 11 12 11 27 37 25 26 9 11 32 28 23 17 24 29 39 38 37 28 31 33 31 28 26 25 26 25 25 27 27 28 32 31 24 18 14 14 14 15 15 13 12 10 9 9 10
9 16 23 14 42 53 10 30 11 17 28 23 11 29 23 19 16 26 41 40 34 35 34 29 29 28 27 26 28 28 28 29 30 33 33 27 20 15 14 15 18 19 20 19 16 14 12 11 11
17 21 16 27 41 13 25 21 13 28 34 19 43 34 28 18 22 37 42 33 35 41 29 29 29 28 28 29 31 31 31 32 34 35 31 25 20 16 17 18 18 19 19 17 15 13 13 13 13
34 39 15 27 10 24 26 22 11 26 34 19 38 37 23 23 33 39 37 32 34 37 24 25 29 28 29 31 33 34 34 36 37 34 29 24 20 18 17 16 16 17 16 13 11 10 9 11 11
30 25 20 18 36 32 26 7 31 28 41 26 10 36 25 30 33 36 33 33 35 30 18 28 30 31 32 35 37 37 38 38 37 33 28 24 20 18 16 14 13 14 13 12 11 11 13 16 20
41 26 39 24 18 18 15 32 10 36 24 26 27 17 26 37 36 35 34 34 31 27 18 25 28 31 34 37 39 40 40 39 36 32 27 23 19 17 16 14 11 12 12 11 15 18 20 25 36
36 25 11 28 46 52 15 27 25 8 27 30 26 26 35 39 39 35 35 34 31 31 23 28 28 28 30 36 41 43 41 38 34 30 25 22 21 15 11 8 9 10 9 14 23 25 36 51 44
26 23 30 22 20 17 18 22 21 15 25 40 35 32 36 40 40 39 36 35 32 31 29 31 31 30 33 30 40 41 39 36 32 28 24 22 20 3 7 7 13 11 10 19 28 31 27 26 28
35 24 28 17 21 21 19 7 6 5 7 34 46 38 36 40 38 38 35 33 33 32 32 33 37 33 37 33 38 38 37 35 33 29 28 20 19 20 28 8 5 11 7 26 25 25 18 18 9
29 30 18 7 15 10 6 12 1 5 8 21 44 41 41 39 37 37 35 33 34 35 35 37 40 45 40 36 34 28 28 28 28 28 30 20 21 25 29 25 15 8 13 8 9 8 18 13 11
34 24 27 12 11 17 5 14 13 20 21 30 39 37 38 39 37 35 33 33 37 39 40 41 41 43 44 39 33 30 26 24 21 21 30 20 28 29 19 19 33 14 12 8 3 22 8 15 9
24 28 36 26 22 27 20 24 19 16 24 27 36 35 34 36 37 37 36 37 41 44 46 47 44 54 44 37 37 41 34 28 30 29 29 32 25 17 18 5 21 17 15 10 12 11 14 14 15
36 22 25 32 35 32 21 16 27 22 35 26 35 34 34 32 34 39 42 44 46 51 50 52 49 55 47 53 45 42 38 38 36 33 30 29 31 20 31 14 11 18 18 13 13 14 14 11 7
22 25 33 34 39 40 12 27 39 35 32 31 34 32 38 36 34 36 42 46 50 53 58 58 53 53 59 57 55 49 39 38 36 37 38 37 36 29 25 13 18 16 19 22 19 16 12 16 15
26 29 38 40 38 30 23 24 31 31 31 25 39 35 38 42 40 43 43 51 56 57 60 62 59 56 54 56 56 55 44 43 39 38 36 39 37 32 19 23 19 24 20 17 19 18 21 20 18
34 35 30 25 36 22 19 32 26 27 45 31 26 31 43 45 53 53 49 50 55 61 65 67 64 61 55 62 56 55 52 48 47 41 42 43 42 36 35 29 27 33 26 25 25 20 23 22 25
40 28 29 29 15 19 11 17 32 37 33 35 24 29 34 47 54 62 57 55 55 61 66 72 72 69 62 63 64 57 61 58 55 55 50 49 50 40 47 42 40 41 32 24 28 40 36 30 25
22 22 28 29 28 27 31 31 30 29 43 31 28 22 28 34 46 67 64 62 64 65 68 69 73 71 68 68 69 66 57 56 55 55 55 54 52 47 51 51 44 46 44 40 39 34 43 42 39
23 23 26 26 25 23 23 30 33 35 49 32 39 16 17 27 21 61 70 66 64 66 70 71 72 76 76 66 61 63 59 57 57 62 61 60 64 59 61 59 59 55 45 43 41 41 39 48 43
23 27 29 22 24 18 24 28 28 38 34 29 36 12 32 12 28 43 57 67 64 58 59 69 68 68 76 78 66 74 75 74 76 64 65 66 71 74 66 75 65 65 43 44 44 46 50 47 55
23 15 18 13 18 23 31 18 24 2 34 21 22 5 31 33 36 42 44 41 53 50 51 58 64 64 56 70 83 70 76 71 64 72 60 68 72 75 79 80 76 72 47 48 52 58 57 56 60
16 7 16 22 23 24 32 24 23 2 15 17 42 41 33 32 34 29 31 27 32 19 3 31 67 75 73 64 64 76 93 81 70 76 73 68 78 84 83 81 85 70 65 57 42 62 61 63 69
16 18 16 18 20 25 18 27 24 16 26 35 37 41 33 33 30 27 27 29 33 29 26 20 18 62 68 72 73 71 72 88 99 90 78 71 74 84 94 93 87 80 78 70 61 73 55 69 72
27 22 17 25 23 16 23 13 18 33 37 42 45 38 31 29 27 29 24 23 24 29 34 28 23 17 11 34 72 76 87 86 87 100 98 79 90 86 94 104 101 84 90 92 86 73 72 64 78
15 23 25 22 25 23 19 23 40 37 36 42 40 34 31 28 22 17 23 17 22 23 27 30 30 30 23 17 20 32 60 79 84 84 84 89 95 86 93 108 110 103 97 104 107 88 76 64 79
20 19 10 11 17 20 20 12 10 21 29 27 30 30 24 21 20 18 19 20 21 22 25 29 26 30 29 29 24 21 30 38 76 80 81 81 86 97 93 89 111 111 108 108 118 107 95 77 77
12 18 14 17 14 15 17 7 17 24 24 25 26 23 19 16 18 19 19 21 22 24 27 31 30 29 31 35 32 28 32 23 39 52 63 72 76 83 86 101 97 113 116 115 118 124 113 97 87
15 21 19 14 18 18 20 15 23 21 21 23 20 15 13 13 14 15 16 21 23 25 29 31 34 34 34 38 31 34 36 37 24 38 54 60 70 76 79 89 97 110 111 115 118 130 128 111 102
Wind_Direction_500mb
254 116 63 296 39 331 259 125 83 93 79 68 63 28 64 50 35 87 126 143 143 150 151 153 151 151 148 144 138 138 142 144 142 141 142 136 131 128 122 115 113 114 115 118 117 111 99 86 76
225 118 199 71 215 230 266 77 59 62 74 84 70 102 73 59 84 114 124 139 137 156 151 146 150 153 151 147 142 142 145 146 147 148 147 143 139 132 123 116 115 116 117 117 116 112 98 79 65
170 202 252 77 277 277 70 80 87 97 99 87 105 66 44 85 104 124 134 142 129 138 142 141 148 151 151 149 144 145 149 151 152 151 150 147 145 139 126 116 109 108 110 112 109 102 88 70 60
173 224 222 166 218 237 84 99 94 115 115 74 120 92 80 87 116 136 141 139 132 137 161 144 150 152 153 152 148 150 154 155 155 154 152 152 151 142 126 114 108 105 103 101 98 89 73 62 62
238 263 241 298 256 168 75 62 12 88 77 55 72 72 93 93 113 135 145 141 141 150 173 155 154 156 158 156 154 156 158 157 157 156 155 157 154 140 125 117 113 108 101 96 88 75 64 57 62
247 241 257 243 182 114 85 80 84 99 73 71 109 102 96 124 130 141 146 144 146 164 188 169 160 162 160 159 159 160 161 160 159 159 161 160 150 137 130 126 119 110 103 97 85 73 60 58 65
254 274 260 309 338 88 95 62 83 74 62 48 29 90 117 136 143 147 149 148 144 146 184 170 166 165 162 162 162 163 163 163 162 163 164 158 147 138 134 128 123 114 107 98 89 73 69 70 74
247 280 297 151 186 350 123 92 80 85 82 97 30 108 144 149 152 153 154 154 154 157 153 164 169 167 165 164 163 164 165 165 165 166 164 154 145 137 125 119 121 117 105 87 83 78 73 72 92
262 273 277 233 124 230 165 121 98 93 111 74 66 99 138 150 154 157 159 160 159 163 154 161 166 168 159 165 166 166 168 168 169 168 162 156 136 126 133 113 124 122 98 90 78 82 88 79 87
232 261 261 25 25 90 88 70 126 194 157 127 109 112 137 150 157 162 166 169 167 170 162 163 167 168 164 170 169 170 171 172 171 169 152 146 117 238 177 158 144 126 106 100 97 88 101 86 67
227 263 312 100 29 341 64 177 60 82 248 154 136 138 147 155 162 166 172 174 174 173 169 166 172 163 168 180 173 173 175 176 178 171 162 151 159 213 199 197 150 103 118 113 90 79 68 45 37
236 268 295 39 137 238 311 22 292 168 1 96 131 146 153 162 168 172 175 175 173 173 171 168 175 163 175 200 182 171 180 180 184 182 166 151 176 222 192 178 165 129 51 83 63 69 84 106 82
239 266 283 229 235 232 66 263 213 280 151 121 132 153 160 164 171 174 177 175 173 172 174 173 179 164 177 198 169 181 183 191 184 206 198 156 199 224 248 176 147 119 143 239 62 165 158 118 106
251 246 263 291 235 251 209 241 221 224 146 137 146 165 170 172 175 174 178 176 175 176 178 178 184 173 180 184 172 188 188 193 195 213 221 175 198 205 219 291 123 163 169 185 183 241 149 134 165
278 288 269 256 255 248 248 273 259 263 159 159 160 174 178 183 183 181 181 180 179 179 182 186 186 191 180 181 186 187 196 202 198 215 223 211 200 208 212 151 174 179 175 182 181 161 146 149 171
274 261 262 261 246 247 197 272 278 197 161 171 176 180 181 183 192 189 187 186 186 184 189 188 189 209 185 196 190 188 197 197 205 205 219 236 228 200 225 209 190 192 193 178 186 184 176 181 203
242 250 239 246 251 223 195 246 271 158 175 209 187 187 187 182 187 190 193 194 193 191 195 191 192 211 203 199 199 190 193 208 204 209 215 234 241 215 201 203 238 207 215 184 182 181 191 194 195
247 226 231 254 266 188 230 271 249 212 233 199 211 213 192 185 183 192 193 199 201 196 201 200 203 197 217 204 207 205 195 209 203 213 215 230 242 212 224 209 227 236 212 192 195 194 197 208 196
271 307 303 308 322 312 239 277 294 295 273 268 193 231 226 188 188 189 191 197 202 205 206 208 201 200 211 219 212 205 208 205 212 202 217 221 233 226 219 221 223 231 223 198 212 196 198 194 196
314 297 276 291 302 299 290 276 258 262 268 265 273 267 258 207 185 184 190 194 202 209 212 215 211 210 205 219 225 223 214 219 217 220 213 221 225 225 217 223 222 236 225 214 226 221 209 199 195
264 265 281 268 286 290 278 261 259 254 262 244 265 233 307 300 225 185 185 193 200 208 216 222 225 220 215 211 222 228 223 218 224 225 224 220 225 225 218 226 214 229 228 224 238 233 222 208 201
251 239 231 267 277 272 285 303 244 218 222 238 243 222 240 343 257 189 185 192 196 204 221 227 234 238 232 224 217 226 224 218 216 222 229 228 226 226 224 226 223 225 222 241 250 244 229 214 204
258 346 337 292 281 288 279 264 270 288 183 198 174 199 68 48 41 33 28 191 195 203 214 233 237 238 246 245 237 226 235 233 228 226 226 228 231 231 224 230 232 228 217 234 264 242 233 224 214
289 282 259 262 256 254 250 253 277 80 166 130 78 78 67 67 64 48 38 28 45 59 198 229 236 246 239 240 250 244 238 239 234 231 230 227 233 232 229 238 240 230 223 227 243 247 245 227 215
206 248 257 235 226 240 303 215 240 77 89 86 91 82 65 61 65 58 39 26 18 16 19 30 30 238 244 243 246 254 254 247 242 236 236 232 228 232 231 232 240 233 224 222 239 242 245 233 219
201 226 256 298 307 339 201 253 253 107 117 104 98 94 90 72 67 64 64 40 38 21 20 21 32 30 14 269 261 261 260 258 257 246 238 241 233 231 238 234 240 240 226 224 232 237 242 239 228
252 240 234 278 293 282 288 287 13 83 86 87 91 85 79 85 83 68 70 51 32 27 25 15 20 16 5 6 321 289 268 263 263 263 249 246 241 237 241 244 239 244 238 232 230 236 239 235 233
273 302 301 246 254 268 277 39 82 109 110 107 96 89 76 64 64 53 46 43 32 24 17 11 13 9 352 330 316 345 314 284 259 258 256 254 248 246 242 251 246 236 238 238 233 235 237 233 232
218 215 242 259 279 313 309 60 102 75 103 102 94 80 71 54 48 27 27 21 15 14 8 359 359 355 348 336 325 323 329 331 278 264 264 261 258 252 249 250 248 239 234 237 238 238 237 234 230
306 300 307 294 276 280 292 301 102 120 100 104 97 78 53 42 23 8 9 359 358 354 349 345 342 340 335 329 329 324 306 302 316 271 271 271 263 260 255 247 249 244 242 240 243 241 237 233 232
Wind_Speed_850mb
11 2 18 10 14 3 15 15 31 21 31 22 25 24 36 48 26 18 39 33 41 32 42 41 32 27 24 22 22 21 21 22 21 22 24 27 27 25 24 22 20 19 18 17 15 13 12 13 15
6 6 2 8 6 17 12 29 29 28 26 23 22 12 34 34 34 39 33 36 40 22 38 38 34 28 24 23 24 24 23 24 24 25 27 30 27 22 18 16 16 15 14 13 12 11 10 11 12
21 16 18 11 12 11 27 37 25 26 9 11 32 28 23 17 24 29 39 38 37 28 31 33 31 28 26 25 26 25 25 27 27 28 32 31 24 18 14 14 14 15 15 13 12 10 9 9 10
9 16 23 14 42 53 10 30 11 17 28 23 11 29 23 19 16 26 41 40 34 35 34 29 29 28 27 26 28 28 28 29 30 33 33 27 20 15 14 15 18 19 20 19 16 14 12 11 11
17 21 16 27 41 13 25 21 13 28 34 19 43 34 28 18 22 37 42 33 35 41 29 29 29 28 28 29 31 31 31 32 34 35 31 25 20 16 17 18 18 19 19 17 15 13 13 13 13
34 39 15 27 10 24 26 22 11 26 34 19 38 37 23 23 33 39 37 32 34 37 24 25 29 28 29 31 33 34 34 36 37 34 29 24 20 18 17 16 16 17 16 13 11 10 9 11 11
30 25 20 18 36 32 26 7 31 28 41 26 10 36 25 30 33 36 33 33 35 30 18 28 30 31 32 35 37 37 38 38 37 33 28 24 20 18 16 14 13 14 13 12 11 11 13 16 20
41 26 39 24 18 18 15 32 10 36 24 26 27 17 26 37 36 35 34 34 31 27 18 25 28 31 34 37 39 40 40 39 36 32 27 23 19 17 16 14 11 12 12 11 15 18 20 25 36
36 25 11 28 46 52 15 27 25 8 27 30 26 26 35 39 39 35 35 34 31 31 23 28 28 28 30 36 41 43 41 38 34 30 25 22 21 15 11 8 9 10 9 14 23 25 36 51 44
26 23 30 22 20 17 18 22 21 15 25 40 35 32 36 40 40 39 36 35 32 31 29 31 31 30 33 30 40 41 39 36 32 28 24 22 20 3 7 7 13 11 10 19 28 31 27 26 28
35 24 28 17 21 21 19 7 6 5 7 34 46 38 36 40 38 38 35 33 33 32 32 33 37 33 37 33 38 38 37 35 33 29 28 20 19 20 28 8 5 11 7 26 25 25 18 18 9
29 30 18 7 15 10 6 12 1 5 8 21 44 41 41 39 37 37 35 33 34 35 35 37 40 45 40 36 34 28 28 28 28 28 30 20 21 25 29 25 15 8 13 8 9 8 18 13 11
34 24 27 12 11 17 5 14 13 20 21 30 39 37 38 39 37 35 33 33 37 39 40 41 41 43 44 39 33 30 26 24 21 21 30 20 28 29 19 19 33 14 12 8 3 22 8 15 9
24 28 36 26 22 27 20 24 19 16 24 27 36 35 34 36 37 37 36 37 41 44 46 47 44 54 44 37 37 41 34 28 30 29 29 32 25 17 18 5 21 17 15 10 12 11 14 14 15
36 22 25 32 35 32 21 16 27 22 35 26 35 34 34 32 34 39 42 44 46 51 50 52 49 55 47 53 45 42 38 38 36 33 30 29 31 20 31 14 11 18 18 13 13 14 14 11 7
22 25 33 34 39 40 12 27 39 35 32 31 34 32 38 36 34 36 42 46 50 53 58 58 53 53 59 57 55 49 39 38 36 37 38 37 36 29 25 13 18 16 19 22 19 16 12 16 15
26 29 38 40 38 30 23 24 31 31 31 25 39 35 38 42 40 43 43 51 56 57 60 62 59 56 54 56 56 55 44 43 39 38 36 39 37 32 19 23 19 24 20 17 19 18 21 20 18
34 35 30 25 36 22 19 32 26 27 45 31 26 31 43 45 53 53 49 50 55 61 65 67 64 61 55 62 56 55 52 48 47 41 42 43 42 36 35 29 27 33 26 25 25 20 23 22 25
40 28 29 29 15 19 11 17 32 37 33 35 24 29 34 47 54 62 57 55 55 61 66 72 72 69 62 63 64 57 61 58 55 55 50 49 50 40 47 42 40 41 32 24 28 40 36 30 25
22 22 28 29 28 27 31 31 30 29 43 31 28 22 28 34 46 67 64 62 64 65 68 69 73 71 68 68 69 66 57 56 55 55 55 54 52 47 51 51 44 46 44 40 39 34 43 42 39
23 23 26 26 25 23 23 30 33 35 49 32 39 16 17 27 21 61 70 66 64 66 70 71 72 76 76 66 61 63 59 57 57 62 61 60 64 59 61 59 59 55 45 43 41 41 39 48 43
23 27 29 22 24 18 24 28 28 38 34 29 36 12 32 12 28 43 57 67 64 58 59 69 68 68 76 78 66 74 75 74 76 64 65 66 71 74 66 75 65 65 43 44 44 46 50 47 55
23 15 18 13 18 23 31 18 24 2 34 21 22 5 31 33 36 42 44 41 53 50 51 58 64 64 56 70 83 70 76 71 64 72 60 68 72 75 79 80 76 72 47 48 52 58 57 56 60
16 7 16 22 23 24 32 24 23 2 15 17 42 41 33 32 34 29 31 27 32 19 3 31 67 75 73 64 64 76 93 81 70 76 73 68 78 84 83 81 85 70 65 57 42 62 61 63 69
16 18 16 18 20 25 18 27 24 16 26 35 37 41 33 33 30 27 27 29 33 29 26 20 18 62 68 72 73 71 72 88 99 90 78 71 74 84 94 93 87 80 78 70 61 73 55 69 72
27 22 17 25 23 16 23 13 18 33 37 42 45 38 31 29 27 29 24 23 24 29 34 28 23 17 11 34 72 76 87 86 87 100 98 79 90 86 94 104 101 84 90 92 86 73 72 64 78
15 23 25 22 25 23 19 23 40 37 36 42 40 34 31 28 22 17 23 17 22 23 27 30 30 30 23 17 20 32 60 79 84 84 84 89 95 86 93 108 110 103 97 104 107 88 76 64 79
20 19 10 11 17 20 20 12 10 21 29 27 30 30 24 21 20 18 19 20 21 22 25 29 26 30 29 29 24 21 30 38 76 80 81 81 86 97 93 89 111 111 108 108 118 107 95 77 77
12 18 14 17 14 15 17 7 17 24 24 25 26 23 19 16 18 19 19 21 22 24 27 31 30 29 31 35 32 28 32 23 39 52 63 72 76 83 86 101 97 113 116 115 118 124 113 97 87
15 21 19 14 18 18 20 15 23 21 21 23 20 15 13 13 14 15 16 21 23 25 29 31 34 34 34 38 31 34 36 37 24 38 54 60 70 76 79 89 97 110 111 115 118 130 128 111 102
Wind_Direction_850mb
254 116 63 296 39 331 259 125 83 93 79 68 63 28 64 50 35 87 126 143 143 150 151 153 151 151 148 144 138 138 142 144 142 141 142 136 131 128 122 115 113 114 115 118 117 111 99 86 76
225 118 199 71 215 230 266 77 59 62 74 84 70 102 73 59 84 114 124 139 137 156 151 146 150 153 151 147 142 142 145 146 147 148 147 143 139 132 123 116 115 116 117 117 116 112 98 79 65
170 202 252 77 277 277 70 80 87 97 99 87 105 66 44 85 104 124 134 142 129 138 142 141 148 151 151 149 144 145 149 151 152 151 150 147 145 139 126 116 109 108 110 112 109 102 88 70 60
173 224 222 166 218 237 84 99 94 115 115 74 120 92 80 87 116 136 141 139 132 137 161 144 150 152 153 152 148 150 154 155 155 154 152 152 151 142 126 114 108 105 103 101 98 89 73 62 62
238 263 241 298 256 168 75 62 12 88 77 55 72 72 93 93 113 135 145 141 141 150 173 155 154 156 158 156 154 156 158 157 157 156 155 157 154 140 125 117 113 108 101 96 88 75 64 57 62
247 241 257 243 182 114 85 80 84 99 73 71 109 102 96 124 130 141 146 144 146 164 188 169 160 162 160 159 159 160 161 160 159 159 161 160 150 137 130 126 119 110 103 97 85 73 60 58 65
254 274 260 309 338 88 95 62 83 74 62 48 29 90 117 136 143 147 149 148 144 146 184 170 166 165 162 162 162 163 163 163 162 163 164 158 147 138 134 128 123 114 107 98 89 73 69 70 74
247 280 297 151 186 350 123 92 80 85 82 97 30 108 144 149 152 153 154 154 154 157 153 164 169 167 165 164 163 164 165 165 165 166 164 154 145 137 125 119 121 117 105 87 83 78 73 72 92
262 273 277 233 124 230 165 121 98 93 111 74 66 99 138 150 154 157 159 160 159 163 154 161 166 168 159 165 166 166 168 168 169 168 162 156 136 126 133 113 124 122 98 90 78 82 88 79 87
232 261 261 25 25 90 88 70 126 194 157 127 109 112 137 150 157 162 166 169 167 170 162 163 167 168 164 170 169 170 171 172 171 169 152 146 117 238 177 158 144 126 106 100 97 88 101 86 67
227 263 312 100 29 341 64 177 60 82 248 154 136 138 147 155 162 166 172 174 174 173 169 166 172 163 168 180 173 173 175 176 178 171 162 151 159 213 199 197 150 103 118 113 90 79 68 45 37
236 268 295 39 137 238 311 22 292 168 1 96 131 146 153 162 168 172 175 175 173 173 171 168 175 163 175 200 182 171 180 180 184 182 166 151 176 222 192 178 165 129 51 83 63 69 84 106 82
239 266 283 229 235 232 66 263 213 280 151 121 132 153 160 164 171 174 177 175 173 172 174 173 179 164 177 198 169 181 183 191 184 206 198 156 199 224 248 176 147 119 143 239 62 165 158 118 106
251 246 263 291 235 251 209 241 221 224 146 137 146 165 170 172 175 174 178 176 175 176 178 178 184 173 180 184 172 188 188 193 195 213 221 175 198 205 219 291 123 163 169 185 183 241 149 134 165
278 288 269 256 255 248 248 273 259 263 159 159 160 174 178 183 183 181 181 180 179 179 182 186 186 191 180 181 186 187 196 202 198 215 223 211 200 208 212 151 174 179 175 182 181 161 146 149 171
274 261 262 261 246 247 197 272 278 197 161 171 176 180 181 183 192 189 187 186 186 184 189 188 189 209 185 196 190 188 197 197 205 205 219 236 228 200 225 209 190 192 193 178 186 184 176 181 203
242 250 239 246 251 223 195 246 271 158 175 209 187 187 187 182 187 190 193 194 193 191 195 191 192 211 203 199 199 190 193 208 204 209 215 234 241 215 201 203 238 207 215 184 182 181 191 194 195
247 226 231 254 266 188 230 271 249 212 233 199 211 213 192 185 183 192 193 199 201 196 201 200 203 197 217 204 207 205 195 209 203 213 215 230 242 212 224 209 227 236 212 192 195 194 197 208 196
271 307 303 308 322 312 239 277 294 295 273 268 193 231 226 188 188 189 191 197 202 205 206 208 201 200 211 219 212 205 208 205 212 202 217 221 233 226 219 221 223 231 223 198 212 196 198 194 196
314 297 276 291 302 299 290 276 258 262 268 265 273 267 258 207 185 184 190 194 202 209 212 215 211 210 205 219 225 223 214 219 217 220 213 221 225 225 217 223 222 236 225 214 226 221 209 199 195
264 265 281 268 286 290 278 261 259 254 262 244 265 233 307 300 225 185 185 193 200 208 216 222 225 220 215 211 222 228 223 218 224 225 224 220 225 225 218 226 214 229 228 224 238 233 222 208 201
251 239 231 267 277 272 285 303 244 218 222 238 243 222 240 343 257 189 185 192 196 204 221 227 234 238 232 224 217 226 224 218 216 222 229 228 226 226 224 226 223 225 222 241 250 244 229 214 204
258 346 337 292 281 288 279 264 270 288 183 198 174 199 68 48 41 33 28 191 195 203 214 233 237 238 246 245 237 226 235 233 228 226 226 228 231 231 224 230 232 228 217 234 264 242 233 224 214
289 282 259 262 256 254 250 253 277 80 166 130 78 78 67 67 64 48 38 28 45 59 198 229 236 246 239 240 250 244 238 239 234 231 230 227 233 232 229 238 240 230 223 227 243 247 245 227 215
206 248 257 235 226 240 303 215 240 77 89 86 91 82 65 61 65 58 39 26 18 16 19 30 30 238 244 243 246 254 254 247 242 236 236 232 228 232 231 232 240 233 224 222 239 242 245 233 219
201 226 256 298 307 339 201 253 253 107 117 104 98 94 90 72 67 64 64 40 38 21 20 21 32 30 14 269 261 261 260 258 257 246 238 241 233 231 238 234 240 240 226 224 232 237 242 239 228
252 240 234 278 293 282 288 287 13 83 86 87 91 85 79 85 83 68 70 51 32 27 25 15 20 16 5 6 321 289 268 263 263 263 249 246 241 237 241 244 239 244 238 232 230 236 239 235 233
273 302 301 246 254 268 277 39 82 109 110 107 96 89 76 64 64 53 46 43 32 24 17 11 13 9 352 330 316 345 314 284 259 258 256 254 248 246 242 251 246 236 238 238 233 235 237 233 232
218 215 242 259 279 313 309 60 102 75 103 102 94 80 71 54 48 27 27 21 15 14 8 359 359 355 348 336 325 323 329 331 278 264 264 261 258 252 249 250 248 239 234 237 238 238 237 234 230
306 300 307 294 276 280 292 301 102 120 100 104 97 78 53 42 23 8 9 359 358 354 349 345 342 340 335 329 329 324 306 302 316 271 271 271 263 260 255 247 249 244 242 240 243 241 237 233 232